Tracking 29790 objects as of 12-Oct-2024
HD Live streaming from Space Station
objects crossing your sky now

ONEWEB-0639

Track ONEWEB-0639 now!
10-day predictions
ONEWEB-0639 is classified as:


NORAD ID: 55803
Int'l Code: 2023-029H
Perigee: 1,190.6 km
Apogee: 1,195.3 km
Inclination: 87.9 °
Period: 109.1 minutes
Semi major axis: 7563 km
RCS: Unknown
Launch date: March 9, 2023
Source: United Kingdom (UK)
Launch site: AIR FORCE EASTERN TEST RANGE (AFETR)
Your satellite tracking list
Your tracking list is empty




NASA's NSSDC Master Catalog

Two Line Element Set (TLE):
1 55803U 23029H   24286.12896926 -.00000023  00000-0 -89461-4 0  9991
2 55803  87.9140  66.8980 0003111  99.0832 261.0653 13.19726151 78730
Source of the keplerian elements: AFSPC